Airfield :
LOGIN :

Register | Disclaimer

   EN    FR    IT 

 










Legend :    VFR   Marginal VFR   IFR   Intensive IFR   Very Intensive IFR
Visi :
Ceiling :
>= 8 km
>= 3000ft
5 to 8 km
1000 to 3000 ft
1500m to 5 km
500 to 1000 ft
800 to 1500m
200 to 500 ft
< 800m
< 200 ft
Symbols :   Thunderstorms  Fog  Heavy snow  Heavy precipitations  Wind > 20 kt
SIGMETs :     Misc.  Thunderstorms  Icing  Turbulence  Mountain Waves  Volcanic Ashes







- Airport Elevation : 295 ft
- IATA code : BWE


EDVE - Braunschweig

CURRENT METAR :
  • 202050Z 10012KT 8000 OVC010 01/M01 Q1015

EXPIRED METARs :
  • 202020Z 09010KT 8000 OVC009 01/M01 Q1015
  • 201920Z 10010KT 5000 -RA BR OVC006 00/M01 Q1015
  • 201850Z 09011KT 4300 -SN BR BKN006 OVC012 00/M01 Q1015
  • 201820Z 09010KT 4400 -SN BR BKN006 OVC013 01/M01 Q1014

Expired Forecast.
No reported NOTAMs for that airfield.



MET'MAP, your aeronautical weather chart ! - Copyright ORBIFLY December 2007 - Disclaimer

ORBIFLY MET'MAP TEAM :

Programming & Development : Alexandra Zaïnal
Concept & Development : Baudouin d'Aumeries
Co-Development & Prog : Marc-Olivier Méhu
Technical & hardware support : Manuel Goepfert

Contact : metmap@orbifly.com




SOURCES & CREDITS :

   NOAA